Reno-Tahoe International Airport

Airport
ICAO code: 
KRNO
Summary
ICAO Region: 
NAM
Territory: 
Location: 
Reno, Nevada,
Coordinates: 
Aerial View: 
39° 30' 21.43" N, 119° 46' 30.342" W
Airport LOS: 
Parallel Runway Operation
Airport RE: 
Hot and High Operations
Airport WX: 
Cumulonimbus
Metar
Observation
KRNO 052155Z 19003KT 10SM SCT250 17/M05 A3029 RMK AO2 SLP245 T01671050
Station
Reno, Reno Tahoe International Airport
Date/Time
2021-12-05 21:55:00
Wind direction
190°
Wind speed
03 kts
Lowest cloud amount
scattered clouds
Temperature
16.7°C
Dew point
-5°C
Humidity
22%
Weather condition
n/a

Description

Reno–Tahoe International Airport is a joint use civil-military (ANG) airport located 6 km) southeast of downtown Reno, in Washoe County, Nevada.

Climatology

Hot, semi-arid/Steppe climate (Köppen climate classification BSh) - hot, sometimes extremely hot summers and mild to warm winters, with low annual precipitation. Severe thunderstorms are common

Runways

Designator Length Width Surface Rops
7/25 1860 46 CON Yes/Yes
16L/34R 2743 46 CON Yes/Yes
16R/34L 3353 46 CON Yes/Yes
Airport map: 
Aerial View: 

SKYbrary Partners:

Safety knowledge contributed by: